Theta_e
313 315 316 317 318 323 325 326 326 326 324 322 322 322 325 328 328 329 328 328 328 327 325 323 321 320 318 317 318 316 314 312 312 310 309 308 307 306 307 306 306 307 307
299 304 308 310 313 319 323 325 327 326 326 326 325 324 325 328 330 330 329 329 329 329 327 326 324 322 320 318 317 316 314 313 313 312 308 304 305 306 308 307 306 304 304
296 298 300 303 309 313 318 323 326 327 327 328 324 322 325 327 326 327 327 328 328 327 327 326 325 324 322 320 318 317 313 313 313 312 310 305 301 303 303 303 303 302 301
291 294 297 298 300 308 313 320 324 325 326 326 326 325 324 323 324 325 327 325 326 326 324 325 324 323 322 320 318 317 316 315 311 310 309 309 307 300 298 300 299 299 300
291 293 295 297 297 299 301 305 315 320 324 325 326 325 324 325 324 323 318 315 315 317 319 320 320 318 317 315 315 313 312 312 311 306 304 305 299 302 299 293 293 295 296
290 292 293 296 299 301 301 300 299 310 321 324 325 325 325 322 321 319 314 311 309 308 308 309 308 308 308 307 305 302 300 300 299 298 298 300 298 294 292 290 289 288 291
290 291 294 297 298 300 302 301 299 298 309 324 324 325 324 323 321 318 313 307 304 303 302 302 301 300 299 298 296 294 293 293 291 291 291 292 292 292 292 289 286 285 287
292 293 295 297 298 300 302 301 299 299 302 319 323 325 318 322 320 315 311 306 302 299 298 296 295 294 293 291 291 290 289 289 288 287 288 288 288 289 289 288 286 282 283
290 293 294 296 297 298 300 300 300 301 304 309 320 319 319 315 310 306 303 300 297 295 293 292 291 290 290 289 288 287 287 287 286 286 286 286 287 287 286 286 287 286 280
291 293 294 295 295 297 299 299 299 300 302 306 309 309 310 308 304 301 297 296 294 292 290 289 289 288 287 287 287 286 286 285 285 285 285 284 285 284 284 284 284 285 284
292 293 294 294 294 294 295 295 296 295 298 300 299 300 299 299 298 297 295 293 291 289 288 287 287 287 286 286 285 285 285 284 283 283 283 283 283 282 283 283 283 282 283
292 293 293 293 293 294 293 293 292 293 295 296 297 295 295 295 293 292 290 291 288 287 287 286 286 286 285 285 285 284 283 283 283 282 282 281 284 282 282 283 282 282 284
290 291 291 291 292 291 291 291 291 292 292 294 294 293 292 291 290 288 287 287 286 286 285 285 285 284 284 284 284 283 283 282 282 281 281 282 282 281 282 282 281 283 285
292 291 291 291 291 291 291 291 291 292 292 292 292 290 290 289 287 287 286 286 285 285 284 284 283 284 283 284 284 283 282 282 282 282 283 283 283 282 282 282 281 283 283
291 291 291 291 291 290 290 291 291 289 290 290 290 288 287 286 286 285 285 284 284 283 283 283 282 283 283 284 283 283 283 282 282 282 283 283 283 285 285 283 283 284 283
293 294 293 293 292 292 292 291 290 288 288 289 288 286 285 285 284 284 284 283 283 283 282 282 282 282 284 289 287 284 283 283 282 282 282 283 283 284 285 286 286 286 283
294 294 294 294 294 293 293 291 290 288 287 286 284 284 284 284 284 283 283 282 281 281 281 281 281 281 283 288 287 286 283 282 282 282 282 282 282 282 283 285 286 285 286
294 295 296 296 295 294 293 292 289 287 285 285 285 283 283 283 282 282 281 281 281 280 280 280 281 281 283 288 287 286 283 282 282 282 282 282 282 282 283 283 283 283 284
296 297 297 297 295 293 292 289 286 286 285 284 284 284 283 282 281 281 281 280 280 279 279 280 279 280 281 286 287 286 283 283 283 283 282 281 281 284 286 284 282 280 283
294 295 295 294 293 292 290 288 286 286 285 285 285 284 283 283 282 281 280 279 280 280 280 280 278 279 279 283 286 286 283 280 281 281 282 282 283 285 286 281 277 275 276
291 293 293 294 294 290 289 288 287 286 287 286 284 283 282 282 282 281 279 279 279 279 277 277 277 277 278 280 284 286 283 281 279 279 279 280 284 285 286 286 282 277 282
289 291 290 289 288 289 289 288 287 288 286 284 283 282 282 282 281 280 278 278 278 276 275 276 276 277 277 279 283 284 285 284 277 277 279 279 284 286 286 283 285 286 284
285 286 286 286 286 285 288 287 287 285 283 284 283 282 281 280 280 279 277 277 277 277 275 276 276 276 276 277 281 283 283 283 280 280 281 284 285 285 283 283 283 281 273
281 279 280 279 279 280 282 283 283 283 284 283 281 280 279 278 278 278 278 277 276 276 276 276 276 275 275 275 276 277 275 278 280 281 278 281 283 281 279 273 276 275 278
278 277 278 278 278 278 278 280 282 283 283 281 279 279 279 278 277 277 277 277 277 278 277 277 276 274 273 275 277 276 273 273 276 275 270 271 269 268 269 267 266 267 270
276 277 277 277 277 276 276 278 282 284 282 279 279 279 278 277 276 275 274 278 278 279 279 279 276 274 277 279 281 282 282 282 280 267 265 264 265 266 266 265 266 265 266
Wind_Speed
8 7 9 8 7 8 10 11 10 9 7 4 4 3 5 5 3 3 6 6 5 5 5 4 4 4 3 3 2 1 0 1 2 3 3 4 3 1 1 1 3 6 5
6 7 8 8 9 11 10 10 12 11 10 7 5 3 4 3 5 5 5 6 6 6 6 6 4 4 3 4 3 3 0 0 2 2 1 4 5 4 5 4 4 6 5
11 9 10 10 8 11 12 12 13 12 11 10 4 2 3 2 2 3 3 5 7 6 3 4 3 4 3 3 3 3 4 1 1 2 2 2 2 5 2 3 3 6 4
9 8 9 9 10 12 7 9 11 12 12 11 10 11 8 7 4 4 4 2 3 4 4 4 4 4 3 3 2 2 2 3 2 1 2 2 1 1 5 4 5 5 10
11 12 12 11 7 7 8 7 6 8 9 12 12 11 9 7 5 4 8 5 5 5 5 5 5 5 4 5 5 4 4 2 2 1 1 2 2 2 1 5 4 2 4
10 9 7 7 6 6 6 7 8 7 8 12 13 14 12 9 6 6 6 5 3 4 5 6 6 6 5 5 5 5 6 5 5 4 4 3 1 1 1 3 3 2 3
9 10 11 11 9 9 8 7 7 7 8 12 12 13 12 10 12 10 8 10 5 3 4 5 5 4 6 6 5 7 6 5 5 4 4 3 3 1 1 1 3 3 3
12 15 15 13 11 10 8 7 8 7 8 11 12 11 7 7 7 9 8 6 5 5 6 7 7 7 7 6 6 5 5 6 5 7 5 3 3 3 2 1 3 3 3
10 11 6 8 7 7 7 8 8 6 7 8 9 8 10 10 9 9 8 7 8 6 7 7 8 7 7 7 7 5 5 5 5 5 5 4 3 3 3 2 1 3 4
6 5 6 7 6 6 5 5 5 7 5 6 6 5 7 10 11 11 12 9 9 8 9 8 7 7 7 7 7 5 5 6 4 4 5 4 3 4 3 2 2 2 3
6 6 5 5 6 4 5 4 5 5 6 5 6 7 6 8 10 10 12 11 10 8 8 8 8 7 7 6 7 6 6 7 6 5 5 5 4 3 3 3 2 2 1
9 8 7 7 7 7 6 6 4 5 4 5 7 7 8 8 9 10 11 12 10 7 9 8 7 7 6 6 6 7 5 6 6 5 5 5 3 5 4 3 4 3 4
4 5 6 7 6 6 5 6 6 6 5 6 8 9 9 9 9 10 11 11 10 8 7 7 7 7 6 6 6 6 6 6 6 5 5 4 4 4 4 4 4 3 5
7 6 6 7 6 6 7 7 7 6 7 7 8 10 10 10 9 10 11 10 8 9 7 6 6 6 6 6 6 5 6 6 5 4 5 4 4 4 4 4 4 4 6
8 8 8 8 8 8 7 6 7 7 8 8 8 8 8 8 10 10 9 8 7 7 7 7 6 6 5 4 5 5 5 5 5 5 4 3 4 4 6 3 4 5 4
12 12 11 10 11 11 11 9 8 8 8 9 10 9 9 9 9 9 9 9 8 7 7 6 6 6 4 11 10 7 5 5 5 4 2 2 3 3 7 10 11 10 6
10 12 15 14 13 14 14 14 11 9 10 9 8 9 9 9 9 9 9 9 8 7 6 6 6 5 4 10 9 8 4 5 5 3 2 1 1 2 4 6 10 9 13
10 13 13 14 16 14 13 11 10 10 9 9 10 9 10 10 9 9 8 7 6 6 6 6 6 5 4 10 9 9 5 4 3 3 2 2 2 3 3 4 7 7 7
13 12 11 11 9 12 13 12 11 11 11 12 13 12 11 11 11 10 9 6 6 5 4 4 5 5 3 8 8 7 4 3 3 2 2 2 3 7 9 5 5 4 7
5 7 7 7 10 12 13 15 15 15 16 15 14 12 11 12 12 10 9 4 5 7 6 6 5 5 5 6 8 6 2 3 2 2 2 7 7 9 11 4 3 4 5
7 4 8 12 13 12 15 15 13 18 15 12 12 12 12 12 10 10 4 7 8 7 5 5 4 4 4 4 6 7 3 3 2 2 2 3 11 12 11 11 4 6 4
8 5 6 7 6 12 14 15 18 13 13 14 15 14 12 9 9 12 8 8 9 8 6 6 4 3 3 5 5 6 7 6 4 3 3 4 12 13 13 8 13 15 6
7 5 4 4 5 7 11 13 10 11 13 14 14 13 12 10 10 11 10 7 7 6 6 5 5 4 3 2 6 6 5 5 2 2 6 12 11 10 6 10 13 9 1
5 4 2 1 3 3 4 4 8 11 13 13 13 12 13 11 9 7 7 7 7 6 5 5 5 4 3 3 3 3 2 5 4 6 4 8 7 5 6 2 5 2 2
3 3 2 2 3 3 3 6 10 13 12 11 10 11 10 12 10 6 7 6 2 6 7 6 5 6 6 5 7 5 3 3 6 3 0 1 1 2 2 2 2 2 2
3 2 2 2 4 3 4 5 10 13 13 12 11 11 10 9 8 8 5 4 5 8 8 8 6 2 3 8 10 10 10 5 3 3 1 2 1 1 2 2 2 2 3
Wind_Direction
236 206 200 205 204 206 194 191 184 190 168 166 174 182 198 191 186 170 185 186 189 199 190 199 197 194 208 218 210 150 86 337 332 334 319 326 23 54 10 36 33 20 5
220 230 218 195 199 206 203 196 197 187 189 189 189 173 171 183 182 179 186 196 198 204 198 202 193 202 211 205 191 181 151 189 16 9 27 344 332 353 346 31 24 11 12
218 225 219 207 201 206 202 200 199 192 194 191 149 109 119 79 148 158 182 207 208 220 205 163 186 203 197 213 187 180 178 174 87 63 87 5 294 336 348 27 40 18 349
223 222 211 210 201 218 215 204 196 191 192 178 182 197 200 196 182 179 191 109 109 129 133 151 144 143 140 135 131 121 122 134 111 113 98 123 112 301 322 337 345 357 343
212 211 208 204 205 176 192 193 183 182 183 185 190 190 198 201 181 116 112 93 79 86 96 98 98 89 83 83 90 86 77 63 101 76 59 31 62 97 318 288 310 4 302
217 218 206 176 188 177 187 188 183 197 186 189 190 194 197 185 146 148 128 123 101 80 69 78 85 82 83 88 89 82 79 81 76 72 67 84 52 23 12 301 297 285 298
206 203 196 190 186 183 193 194 194 210 206 196 198 198 198 194 166 161 149 144 138 108 94 94 90 89 92 87 89 82 72 69 78 74 71 64 64 57 273 267 303 300 301
216 207 202 189 186 186 185 194 201 214 201 211 208 202 177 173 162 151 148 133 131 127 126 108 98 101 96 90 85 81 85 85 82 79 75 90 58 52 47 13 344 319 312
224 220 181 179 174 181 192 193 201 209 207 207 212 191 167 147 145 129 121 122 122 125 122 113 115 106 99 99 98 101 104 96 95 86 76 80 60 55 53 54 43 0 324
215 211 181 171 171 190 190 200 200 193 181 177 157 162 154 144 139 141 128 135 124 129 122 116 113 108 108 108 104 102 102 94 70 68 77 64 47 45 39 44 51 68 347
193 175 171 175 183 180 181 193 177 166 158 155 141 141 133 134 132 135 133 130 131 133 126 127 122 120 116 108 102 94 96 93 92 71 76 65 53 46 39 25 15 23 340
183 178 174 172 177 193 184 186 172 161 164 142 135 127 125 127 129 136 124 131 129 129 133 129 117 113 118 122 113 109 102 107 97 86 83 65 56 46 24 19 15 355 338
158 160 174 195 192 181 168 164 167 167 152 143 135 132 135 134 139 130 124 121 133 127 113 116 126 131 133 117 110 120 119 110 98 93 87 82 65 41 13 4 355 335 335
194 192 194 198 186 182 180 181 173 170 153 146 145 145 142 141 139 132 128 132 131 128 124 123 129 130 123 127 130 123 111 108 103 102 98 77 62 42 355 339 329 330 331
209 206 202 199 190 185 188 186 181 169 158 150 150 147 132 125 128 123 123 121 118 124 128 128 123 121 123 136 128 120 120 125 115 101 102 88 54 14 349 329 327 321 313
215 206 207 199 199 192 191 188 178 167 158 163 160 145 134 133 128 127 130 125 123 127 130 134 128 137 133 140 135 135 132 124 111 106 104 73 36 335 335 331 325 320 322
220 210 209 206 201 197 187 191 177 163 168 155 145 144 139 137 137 135 135 138 143 137 138 131 137 136 148 147 141 137 128 128 130 151 152 111 210 309 307 312 315 308 303
209 214 210 209 205 193 185 172 164 165 164 155 153 147 147 146 145 144 146 138 140 142 140 143 151 149 173 167 165 153 153 142 152 191 212 222 281 285 291 268 310 315 288
229 223 214 213 183 183 175 160 156 160 163 170 171 169 159 153 155 159 153 144 135 124 127 135 143 154 162 188 194 169 169 157 196 214 220 231 261 283 301 286 289 305 282
237 223 200 171 170 181 166 167 176 178 184 179 173 166 164 161 164 156 150 135 127 136 137 140 157 162 167 191 200 197 167 186 204 251 254 256 248 279 298 276 235 251 255
287 239 186 189 192 164 166 185 185 196 184 163 156 158 162 162 157 144 131 137 135 133 140 142 150 160 171 192 196 208 175 188 184 192 246 248 266 283 286 294 256 224 258
325 287 225 207 169 166 174 187 196 182 163 158 160 164 161 154 150 147 141 147 146 146 152 149 153 167 190 188 206 205 210 205 166 206 230 253 283 280 280 298 312 305 322
324 324 247 156 149 169 188 193 188 156 159 161 162 158 149 147 151 149 148 144 151 158 161 167 174 185 177 206 214 213 232 251 239 217 259 277 295 295 307 316 316 315 135
334 336 57 129 181 176 170 159 140 151 161 163 159 155 152 147 148 145 155 154 164 163 162 178 192 179 183 200 199 217 260 272 266 270 275 272 288 322 314 322 329 301 266
330 351 306 255 241 160 154 145 151 155 163 158 155 158 155 157 152 150 162 168 160 178 172 195 180 170 202 207 202 207 217 223 236 243 27 269 311 309 313 326 315 312 284
299 315 271 215 229 177 153 154 160 165 159 158 163 166 158 155 152 148 126 163 165 188 195 184 169 190 199 191 211 227 239 251 278 56 178 253 254 290 297 293 290 292 279